This demonstration page uses our WeatherBlox Daily Observations layout. Learn more.

Hourly Observations for November 11, 2015

Temp ( °F °C ) Dew Point ( °F °C ) Humidity (%) Winds ( mph kmh ) Pressure ( in mb ) Visibility ( mi km ) Precip ( " mm )
12:15 am 00:15 Clear with Mist and Fog 38 3.3 37 2.7 96 96 NE 9 15 29.71 1006 3 4.82802 0 0
12:35 am 00:35 Mostly Cloudy with Mist and Fog 39 3.9 38 3.3 96 96 NNE 10 17 29.71 1006 4 6.43736 0 0
12:55 am 00:55 Cloudy with Mist and Fog 41 5 40 4.4 96 96 NNE 7 11 29.71 1006 4 6.43736 0 0
1:15 am 01:15 Cloudy with Mist and Fog 41 5.1 40 4.5 96 96 NNE 10 17 29.71 1006 5 8.0467 0 0
1:35 am 01:35 Cloudy with Mist and Fog 42 5.5 41 5 97 97 NNE 15 24 29.68 1005 5 8.0467 0 0
1:55 am 01:55 Cloudy with Mist and Fog 43 6 42 5.3 95 95 NE 15 24 29.65 1004 5 8.0467 0 0
2:15 am 02:15 Cloudy with Mist and Fog 43 6.1 41 5.2 94 94 NE 15 24 29.65 1004 5 8.0467 0 0
2:35 am 02:35 Cloudy with Mist and Fog 44 6.5 42 5.5 93 93 NE 17 28 29.62 1003 5 8.0467 0 0
2:55 am 02:55 Cloudy with Mist and Fog 44 6.5 42 5.5 93 93 NE 15 24 29.62 1003 5 8.0467 0 0
3:15 am 03:15 Cloudy with Mist and Fog 44 6.5 42 5.5 93 93 NE 18 30 29.62 1003 5 8.0467 0 0
3:35 am 03:35 Cloudy with Mist and Fog 44 6.5 42 5.5 93 93 NE 18 30 29.62 1003 5 8.0467 0 0
3:55 am 03:55 Cloudy with Mist and Fog 43 6.3 42 5.3 93 93 NE 18 30 29.59 1002 5 8.0467 0 0
4:15 am 04:15 Cloudy with Mist and Fog 43 6 41 5 93 93 NE 17 28 29.59 1002 5 8.0467 0 0
4:35 am 04:35 Cloudy with Mist and Fog 42 5.8 41 4.8 93 93 NE 22 35 29.59 1002 5 8.0467 0 0
4:55 am 04:55 Cloudy with Mist and Fog 42 5.5 40 4.5 93 93 NE 23 37 29.59 1002 4 6.43736 0 0
5:15 am 05:15 Cloudy with Mist and Fog 41 5.1 40 4.2 94 94 NE 17 28 29.62 1003 4 6.43736 0 0
5:35 am 05:35 Cloudy 39 4 37 3 93 93 NNE 18 30 29.62 1003 7 11.26538 0 0
5:55 am 05:55 Cloudy with Mist and Fog 38 3.5 37 2.5 93 93 NE 24 39 29.62 1003 5 8.0467 0 0
6:15 am 06:15 Cloudy with Mist and Fog 38 3.6 37 2.6 93 93 NNE 18 30 29.59 1002 4 6.43736 0 0
6:35 am 06:35 Cloudy with Mist and Fog 37 3 36 2 93 93 NNE 24 39 29.56 1001 1 1.60934 0 0
6:55 am 06:55 Cloudy with Light Rain 37 2.6 35 1.9 95 95 NE 24 39 29.56 1001 0.5 0.80467 0 0
7:15 am 07:15 Cloudy with Light Rain 37 2.5 35 1.7 95 95 NE 20 31 29.56 1001 0.5 0.80467 0 0
7:35 am 07:35 Cloudy with Light Rain 37 2.5 36 2 97 97 NNE 25 41 29.53 1000 0.75 1.207005 0 0
7:55 am 07:55 Cloudy with Light Rain 37 2.5 36 2 97 97 NNE 28 44 29.53 1000 1 1.60934 0 0
8:15 am 08:15 Cloudy with Light Rain 37 2.5 36 2 97 97 NE 25 41 29.53 1000 1 1.60934 0 0
8:35 am 08:35 Cloudy with Light Rain 37 2.5 36 2 97 97 NNE 25 41 29.53 1000 1.75 2.816345 0 0
8:55 am 08:55 Cloudy with Light Rain 37 2.5 36 2 97 97 NNE 25 41 29.53 1000 1.5 2.41401 0 0
9:15 am 09:15 Cloudy with Light Rain 37 2.7 36 2.1 96 96 N 21 33 29.53 1000 1.75 2.816345 0 0
9:35 am 09:35 Cloudy with Mist and Fog 37 2.7 36 2.1 96 96 N 21 33 29.56 1001 2 3.21868 0 0
9:55 am 09:55 Cloudy with Light Rain 37 3 36 2.3 95 95 N 18 30 29.56 1001 2 3.21868 0 0
10:15 am 10:15 Cloudy with Light Rain 37 3 37 2.5 97 97 NNE 24 39 29.53 1000 2.5 4.02335 0 0
10:35 am 10:35 Cloudy 38 3.1 36 2.4 95 95 N 25 41 29.53 1000 2 3.21868 0.01 0.254
10:55 am 10:55 Cloudy 37 3 36 2.1 94 94 N 26 43 29.53 1000 2.5 4.02335 0.02 0.508
11:15 am 11:15 Cloudy 37 3 36 2.2 95 95 N 29 46 29.56 1001 2.5 4.02335 0.02 0.508
11:35 am 11:35 Cloudy 37 3 36 2 93 93 N 23 37 29.56 1001 7 11.26538 0.02 0.508
11:55 am 11:55 Cloudy with Light Rain 36 2.3 34 1.2 93 93 NNW 26 43 29.56 1001 10 16.0934 0.02 0.508
12:15 pm 12:15 Cloudy with Light Rain 35 1.7 33 0.5 92 92 N 25 41 29.59 1002 5 8.0467 0 0
12:35 pm 12:35 Cloudy 35 1.6 33 0.3 91 91 N 26 43 29.59 1002 5 8.0467 0.01 0.254
12:55 pm 12:55 Windy with Snow Likely 34 1.2 32 0 92 92 NNW 23 37 29.62 1003 1.75 2.816345 0.01 0.254
1:15 pm 13:15 Cloudy with Areas of Snow 33 0.5 32 0 96 96 NNW 20 31 29.62 1003 0.5 0.80467 0.02 0.508
1:35 pm 13:35 Cloudy with Light Snow 33 0.6 32 0 96 96 NNW 16 26 29.65 1004 0.75 1.207005 0.04 1.016
1:55 pm 13:55 Cloudy with Light Snow 33 0.8 32 0.1 95 95 NNW 16 26 29.65 1004 1.25 2.011675 0.07 1.778
2:15 pm 14:15 Cloudy with Light Snow 33 0.6 32 0 96 96 NNW 16 26 29.68 1005 0.75 1.207005 0.01 0.254
2:35 pm 14:35 Cloudy with Light Snow 33 0.6 32 0 96 96 NW 18 30 29.68 1005 0.75 1.207005 0.03 0.762
2:55 pm 14:55 Cloudy with Snow 33 0.6 32 0 96 96 NW 20 31 29.71 1006 0.75 1.207005 0.04 1.016
3:15 pm 15:15 Windy with Snow Likely 33 0.6 32 0 96 96 NW 22 35 29.71 1006 0.75 1.207005 0.01 0.254
3:35 pm 15:35 Windy with Snow Likely 34 1.1 33 0.5 96 96 NW 20 31 29.74 1007 5 8.0467 0.05 1.27
3:55 pm 15:55 Cloudy 35 1.8 32 0.1 89 89 NW 23 37 29.74 1007 10 16.0934 0.06 1.524
4:15 pm 16:15 Cloudy with Light Rain 35 1.5 32 0.2 91 91 NW 20 31 29.77 1008 10 16.0934 0 0
4:35 pm 16:35 Cloudy 35 1.6 33 0.3 91 91 NW 16 26 29.77 1008 10 16.0934 0 0
4:55 pm 16:55 Cloudy 36 2.2 33 0.6 89 89 NW 16 26 29.8 1009 10 16.0934 0 0
5:15 pm 17:15 Cloudy 36 2.3 33 0.5 88 88 NW 14 22 29.8 1009 10 16.0934 0 0
5:35 pm 17:35 Cloudy 37 2.7 33 0.6 86 86 NW 15 24 29.83 1010 10 16.0934 0 0
5:55 pm 17:55 Cloudy 37 3 33 0.7 85 85 NW 17 28 29.83 1010 10 16.0934 0 0
6:15 pm 18:15 Cloudy 38 3.1 33 0.6 84 84 NW 25 41 29.85 1011 10 16.0934 0 0
6:35 pm 18:35 Partly Cloudy 37 2.8 33 0.3 84 84 NW 16 26 29.85 1011 10 16.0934 0 0
6:55 pm 18:55 Partly Cloudy 37 2.5 33 0.3 86 86 NW 16 26 29.85 1011 10 16.0934 0 0
7:15 pm 19:15 Partly Cloudy 36 2.1 32 0.1 87 87 WNW 16 26 29.85 1011 10 16.0934 0 0
7:35 pm 19:35 Clear 36 2.3 32 0 85 85 NW 17 28 29.85 1011 10 16.0934 0 0
7:55 pm 19:55 Clear 36 2.4 32 0 84 84 WNW 17 28 29.85 1011 10 16.0934 0 0
8:15 pm 20:15 Clear 36 2.3 32 0 85 85 WNW 16 26 29.85 1011 10 16.0934 0 0
8:35 pm 20:35 Clear 37 2.5 32 0 84 84 WNW 17 28 29.85 1011 10 16.0934 0 0
8:55 pm 20:55 Clear 37 2.5 32 -0.2 83 83 WNW 17 28 29.85 1011 10 16.0934 0 0
9:15 pm 21:15 Clear 37 2.5 31 -0.3 82 82 WNW 16 26 29.88 1012 10 16.0934 0 0
9:35 pm 21:35 Clear 36 2.3 31 -0.5 82 82 WNW 14 22 29.88 1012 10 16.0934 0 0
9:55 pm 21:55 Clear 37 3 31 -0.5 78 78 WNW 16 26 29.91 1013 10 16.0934 0 0
10:15 pm 22:15 Clear 37 3 31 -0.5 78 78 NW 16 26 29.91 1013 10 16.0934 0 0
10:35 pm 22:35 Clear 38 3.3 31 -0.6 76 76 WNW 14 22 29.94 1014 10 16.0934 0 0
10:55 pm 22:55 Clear 37 2.8 31 -0.8 77 77 WNW 10 17 29.94 1014 10 16.0934 0 0
11:15 pm 23:15 Clear 36 2.2 31 -0.8 81 81 W 12 19 29.97 1015 10 16.0934 0 0
11:35 pm 23:35 Clear 35 1.5 31 -0.7 85 85 W 9 15 29.97 1015 10 16.0934 0 0
11:55 pm 23:55 Clear 34 1.1 31 -0.8 87 87 W 10 17 30 1016 10 16.0934 0 0

Powered by AerisWeather